Terminal Aerodrome Forecast
Issued by NWS King Salmon, AK

Home | Current Version | Previous Version | Text Only | Print | Product List | Glossary On
Versions: 1 2 3 4 5 6 7 8 9 10 11 12 13 14 15 16 17 18 19 20 21 22 23 24 25 26 27 28 29 30 31
000
FTAK31 PANC 072222 AAA
TAFAKN
TAF AMD
PAKN 072222Z 0722/0818 02012G22KT P6SM BKN060 WS020/10038KT
     FM072300 04016G25KT P6SM SCT050 WS020/09040KT=

USA.gov is the U.S. government's official web portal to all federal, state and local government web resources and services.